| time (UTC) | temp F | wind direction | speed MPH | gust MPH | rain 1hr in | rain 24hr in | rain mn in | humidity % | barometer mb |
| 20260507151807 | 74 | 34 | 7.0 | 19.0 | 0.00 | 0.00 | 0.00 | 79 | 1019.6 |
| 20260507151304 | 74 | 34 | 12.0 | 19.0 | 0.00 | 0.00 | 0.00 | 78 | 1019.5 |
| 20260507150432 | 74 | 77 | 9.0 | 17.0 | 0.00 | 0.00 | 0.00 | 79 | 1019.6 |
| 20260507145935 | 75 | 84 | 8.0 | 17.0 | 0.00 | 0.00 | 0.00 | 77 | 1019.6 |
| 20260507145708 | 73 | 74 | 7.0 | 15.0 | 0.00 | 0.00 | 0.00 | 81 | 1019.5 |
| 20260507145610 | 75 | 113 | 9.0 | 15.0 | 0.00 | 0.00 | 0.00 | 78 | 1019.7 |
| 20260507145000 | 74 | 78 | 8.0 | 13.0 | 0.00 | 0.00 | 0.00 | 79 | 1019.5 |
| 20260507144944 | 74 | 97 | 8.0 | 15.0 | 0.00 | 0.00 | 0.00 | 79 | 1019.6 |
| 20260507143430 | 72 | 66 | 7.0 | 15.0 | 0.00 | 0.00 | 0.00 | 83 | 1019.6 |
| 20260507143341 | 72 | 85 | 8.0 | 13.0 | 0.00 | 0.00 | 0.00 | 82 | 1019.6 |
| 20260507142626 | 72 | 57 | 7.0 | 13.0 | 0.00 | 0.00 | 0.00 | 83 | 1019.6 |
| 20260507142538 | 72 | 76 | 7.0 | 12.0 | 0.00 | 0.00 | 0.00 | 83 | 1019.6 |
| 20260507141431 | 73 | 55 | 8.0 | 13.0 | 0.00 | 0.00 | 0.00 | 82 | 1019.7 |
| 20260507140932 | 73 | 98 | 4.0 | 9.0 | 0.00 | 0.00 | 0.00 | 81 | 1019.6 |
| 20260507140431 | 73 | 101 | 5.0 | 12.0 | 0.00 | 0.00 | 0.00 | 81 | 1019.7 |
| 20260507135932 | 73 | 119 | 7.0 | 13.0 | 0.00 | 0.00 | 0.00 | 81 | 1019.7 |
| 20260507135431 | 73 | 69 | 8.0 | 13.0 | 0.00 | 0.00 | 0.00 | 81 | 1019.6 |
| 20260507134931 | 73 | 83 | 8.0 | 13.0 | 0.00 | 0.00 | 0.00 | 81 | 1019.6 |
| 20260507134432 | 73 | 111 | 6.0 | 15.0 | 0.00 | 0.00 | 0.00 | 81 | 1019.4 |
| 20260507133937 | 73 | 57 | 9.0 | 15.0 | 0.00 | 0.00 | 0.00 | 80 | 1019.4 |
| 20260507133434 | 74 | 30 | 5.0 | 10.0 | 0.00 | 0.00 | 0.00 | 80 | 1019.1 |
| 20260507133209 | 73 | 113 | 6.0 | 12.0 | 0.00 | 0.00 | 0.00 | 81 | 1019.0 |
| 20260507133107 | 73 | 87 | 6.0 | 10.0 | 0.00 | 0.00 | 0.00 | 80 | 1019.1 |
| 20260507131931 | 72 | 99 | 8.0 | 12.0 | 0.00 | 0.00 | 0.00 | 81 | 1019.0 |
| 20260507131431 | 72 | 102 | 5.0 | 9.0 | 0.00 | 0.00 | 0.00 | 81 | 1018.8 |
| 20260507131255 | 72 | 89 | 3.0 | 9.0 | 0.00 | 0.00 | 0.00 | 82 | 1018.7 |
| 20260507130431 | 72 | 82 | 5.0 | 9.0 | 0.00 | 0.00 | 0.00 | 82 | 1018.6 |
| 20260507125923 | 72 | 83 | 3.0 | 8.0 | 0.00 | 0.00 | 0.00 | 82 | 1018.5 |
| 20260507125419 | 71 | 72 | 5.0 | 8.0 | 0.00 | 0.00 | 0.00 | 82 | 1018.3 |
| 20260507125232 | 71 | 96 | 2.0 | 6.0 | 0.00 | 0.00 | 0.00 | 83 | 1018.6 |
| 20260507124714 | 71 | 95 | 3.0 | 6.0 | 0.00 | 0.00 | 0.00 | 84 | 1018.5 |
| 20260507124615 | 71 | 101 | 3.0 | 7.0 | 0.00 | 0.00 | 0.00 | 83 | 1018.5 |
| 20260507124355 | 71 | 99 | 4.0 | 7.0 | 0.00 | 0.00 | 0.00 | 84 | 1018.5 |
| 20260507122904 | 70 | 93 | 3.0 | 6.0 | 0.00 | 0.00 | 0.00 | 84 | 1018.3 |
| 20260507122405 | 70 | 98 | 3.0 | 6.0 | 0.00 | 0.00 | 0.00 | 85 | 1018.3 |
| 20260507122211 | 70 | 96 | 3.0 | 7.0 | 0.00 | 0.00 | 0.00 | 86 | 1018.3 |
| 20260507121848 | 70 | 92 | 4.0 | 6.0 | 0.00 | 0.00 | 0.00 | 87 | 1018.3 |
| 20260507121840 | 70 | 91 | 2.0 | 7.0 | 0.00 | 0.00 | 0.00 | 87 | 1018.2 |
| 20260507120404 | 69 | 118 | 3.0 | 4.0 | 0.00 | 0.00 | 0.00 | 87 | 1018.3 |
| 20260507120208 | 69 | 111 | 2.0 | 4.0 | 0.00 | 0.00 | 0.00 | 87 | 1018.3 |
| 20260507115404 | 69 | 111 | 2.0 | 4.0 | 0.00 | 0.00 | 0.00 | 87 | 1018.5 |
| 20260507115204 | 69 | 111 | 2.0 | 4.0 | 0.00 | 0.00 | 0.00 | 87 | 1018.5 |
| 20260507114403 | 69 | 111 | 3.0 | 4.0 | 0.00 | 0.00 | 0.00 | 87 | 1018.5 |
| 20260507114206 | 69 | 111 | 3.0 | 4.0 | 0.00 | 0.00 | 0.00 | 87 | 1018.2 |
| 20260507113533 | 69 | 110 | 3.0 | 7.0 | 0.00 | 0.00 | 0.00 | 88 | 1018.2 |
| 20260507113459 | 69 | 111 | 1.0 | 6.0 | 0.00 | 0.00 | 0.00 | 87 | 1018.2 |
| 20260507112406 | 69 | 112 | 4.0 | 9.0 | 0.00 | 0.00 | 0.00 | 88 | 1018.1 |
| 20260507111904 | 69 | 104 | 6.0 | 9.0 | 0.00 | 0.00 | 0.00 | 88 | 1018.0 |
| 20260507111403 | 69 | 100 | 4.0 | 8.0 | 0.00 | 0.00 | 0.00 | 88 | 1018.0 |
| 20260507111227 | 69 | 108 | 4.0 | 7.0 | 0.00 | 0.00 | 0.00 | 88 | 1017.8 |
| 20260507110412 | 69 | 99 | 3.0 | 7.0 | 0.00 | 0.00 | 0.00 | 88 | 1017.8 |
| 20260507110216 | 69 | 90 | 3.0 | 7.0 | 0.00 | 0.00 | 0.00 | 88 | 1017.8 |
| 20260507105405 | 69 | 94 | 2.0 | 4.0 | 0.00 | 0.00 | 0.00 | 87 | 1017.8 |
| 20260507104902 | 69 | 95 | 1.0 | 4.0 | 0.00 | 0.00 | 0.00 | 87 | 1017.7 |
| 20260507104403 | 69 | 94 | 2.0 | 3.0 | 0.00 | 0.00 | 0.00 | 86 | 1017.7 |
| 20260507104223 | 69 | 94 | 2.0 | 3.0 | 0.00 | 0.00 | 0.00 | 86 | 1017.6 |
| 20260507103405 | 69 | 94 | 2.0 | 4.0 | 0.00 | 0.00 | 0.00 | 86 | 1017.5 |
| 20260507103219 | 69 | 94 | 2.0 | 4.0 | 0.00 | 0.00 | 0.00 | 87 | 1017.6 |
| 20260507102406 | 69 | 93 | 2.0 | 4.0 | 0.00 | 0.00 | 0.00 | 87 | 1017.6 |
| 20260507101905 | 69 | 93 | 3.0 | 6.0 | 0.00 | 0.00 | 0.00 | 87 | 1017.5 |
| 20260507101403 | 69 | 92 | 4.0 | 8.0 | 0.00 | 0.00 | 0.00 | 88 | 1017.3 |
| 20260507100904 | 69 | 88 | 4.0 | 8.0 | 0.00 | 0.00 | 0.00 | 88 | 1017.3 |
| 20260507100404 | 69 | 109 | 6.0 | 11.0 | 0.00 | 0.00 | 0.00 | 87 | 1017.3 |
| 20260507095906 | 69 | 103 | 6.0 | 11.0 | 0.00 | 0.00 | 0.00 | 87 | 1017.2 |
| 20260507095406 | 69 | 71 | 5.0 | 10.0 | 0.00 | 0.00 | 0.00 | 87 | 1017.2 |
| 20260507094906 | 69 | 97 | 5.0 | 11.0 | 0.00 | 0.00 | 0.00 | 87 | 1017.2 |
| 20260507094404 | 69 | 94 | 6.0 | 11.0 | 0.00 | 0.00 | 0.00 | 87 | 1017.2 |
| 20260507093905 | 70 | 93 | 5.0 | 10.0 | 0.00 | 0.00 | 0.00 | 86 | 1017.1 |
| 20260507093405 | 70 | 64 | 5.0 | 10.0 | 0.00 | 0.00 | 0.00 | 86 | 1017.2 |
| 20260507092904 | 70 | 108 | 6.0 | 10.0 | 0.00 | 0.00 | 0.00 | 86 | 1017.2 |
| 20260507092811 | 70 | 90 | 5.0 | 10.0 | 0.00 | 0.00 | 0.00 | 85 | 1017.2 |
| 20260507092227 | 69 | 102 | 3.0 | 9.0 | 0.00 | 0.00 | 0.00 | 85 | 1017.2 |
| 20260507091405 | 69 | 87 | 6.0 | 10.0 | 0.00 | 0.00 | 0.00 | 85 | 1017.3 |
| 20260507090903 | 69 | 103 | 7.0 | 10.0 | 0.00 | 0.00 | 0.00 | 86 | 1017.2 |
| 20260507090404 | 69 | 103 | 7.0 | 10.0 | 0.00 | 0.00 | 0.00 | 86 | 1017.2 |
| 20260507085906 | 69 | 123 | 5.0 | 12.0 | 0.00 | 0.00 | 0.00 | 86 | 1017.1 |
| 20260507085427 | 69 | 119 | 9.0 | 12.0 | 0.00 | 0.00 | 0.00 | 86 | 1017.1 |
| 20260507085226 | 70 | 116 | 6.0 | 12.0 | 0.00 | 0.00 | 0.00 | 86 | 1017.2 |
| 20260507084406 | 70 | 116 | 4.0 | 12.0 | 0.00 | 0.00 | 0.00 | 86 | 1017.2 |
| 20260507084224 | 70 | 109 | 7.0 | 10.0 | 0.00 | 0.00 | 0.00 | 85 | 1017.3 |
| 20260507083403 | 70 | 97 | 6.0 | 10.0 | 0.00 | 0.00 | 0.00 | 85 | 1017.2 |
| 20260507083239 | 70 | 103 | 5.0 | 10.0 | 0.00 | 0.00 | 0.00 | 85 | 1017.5 |
| 20260507082416 | 70 | 84 | 3.0 | 10.0 | 0.00 | 0.00 | 0.00 | 84 | 1017.5 |
| 20260507081903 | 70 | 109 | 6.0 | 10.0 | 0.00 | 0.00 | 0.00 | 84 | 1017.5 |
| 20260507081404 | 70 | 96 | 7.0 | 10.0 | 0.00 | 0.00 | 0.00 | 84 | 1017.5 |
| 20260507080903 | 70 | 101 | 7.0 | 10.0 | 0.00 | 0.00 | 0.00 | 85 | 1017.6 |
| 20260507080402 | 70 | 109 | 4.0 | 10.0 | 0.00 | 0.00 | 0.00 | 85 | 1017.6 |
| 20260507075902 | 70 | 107 | 6.0 | 12.0 | 0.00 | 0.00 | 0.00 | 85 | 1017.6 |
| 20260507075403 | 70 | 86 | 6.0 | 12.0 | 0.00 | 0.00 | 0.00 | 85 | 1017.8 |
| 20260507075040 | 70 | 119 | 4.0 | 6.0 | 0.00 | 0.00 | 0.00 | 86 | 1017.9 |
| 20260507074952 | 70 | 113 | 6.0 | 9.0 | 0.00 | 0.00 | 0.00 | 85 | 1017.9 |
| 20260507073849 | 70 | 109 | 3.0 | 6.0 | 0.00 | 0.00 | 0.00 | 86 | 1017.9 |
| 20260507073345 | 70 | 107 | 4.0 | 6.0 | 0.00 | 0.00 | 0.00 | 85 | 1017.9 |
| 20260507072845 | 70 | 107 | 3.0 | 6.0 | 0.00 | 0.00 | 0.00 | 85 | 1017.9 |
| 20260507072354 | 70 | 105 | 4.0 | 7.0 | 0.00 | 0.00 | 0.00 | 85 | 1017.9 |
| 20260507072030 | 70 | 128 | 3.0 | 5.0 | 0.00 | 0.00 | 0.00 | 86 | 1018.1 |
| 20260507071941 | 70 | 103 | 4.0 | 7.0 | 0.00 | 0.00 | 0.00 | 85 | 1018.0 |
| 20260507070833 | 70 | 143 | 3.0 | 7.0 | 0.00 | 0.00 | 0.00 | 87 | 1018.1 |
| 20260507070643 | 70 | 144 | 4.0 | 7.0 | 0.00 | 0.00 | 0.00 | 87 | 1018.2 |
| 20260507065837 | 70 | 113 | 3.0 | 4.0 | 0.00 | 0.00 | 0.00 | 87 | 1018.5 |
| 20260507065342 | 70 | 113 | 2.0 | 6.0 | 0.00 | 0.00 | 0.00 | 87 | 1018.6 |
| 20260507064831 | 69 | 113 | 2.0 | 7.0 | 0.00 | 0.00 | 0.00 | 87 | 1018.7 |
| 20260507064332 | 69 | 92 | 4.0 | 7.0 | 0.00 | 0.00 | 0.00 | 86 | 1018.8 |
| 20260507063832 | 70 | 85 | 3.0 | 9.0 | 0.00 | 0.00 | 0.00 | 85 | 1018.9 |
| 20260507063331 | 70 | 92 | 5.0 | 9.0 | 0.00 | 0.00 | 0.00 | 85 | 1018.9 |
| 20260507062831 | 70 | 94 | 4.0 | 12.0 | 0.00 | 0.00 | 0.00 | 85 | 1018.8 |
| 20260507062332 | 70 | 144 | 6.0 | 12.0 | 0.00 | 0.00 | 0.00 | 86 | 1018.8 |
| 20260507061831 | 70 | 138 | 3.0 | 5.0 | 0.00 | 0.00 | 0.00 | 87 | 1018.9 |
| 20260507061332 | 70 | 139 | 3.0 | 6.0 | 0.00 | 0.00 | 0.00 | 87 | 1018.9 |
| 20260507061010 | 70 | 95 | 2.0 | 4.0 | 0.00 | 0.00 | 0.00 | 88 | 1019.0 |
| 20260507060930 | 70 | 135 | 4.0 | 6.0 | 0.00 | 0.00 | 0.00 | 87 | 1019.0 |
| 20260507055831 | 70 | 93 | 2.0 | 3.0 | 0.00 | 0.00 | 0.00 | 88 | 1019.0 |
| 20260507055330 | 70 | 93 | 2.0 | 4.0 | 0.00 | 0.00 | 0.00 | 87 | 1019.2 |
| 20260507054832 | 69 | 92 | 1.0 | 7.0 | 0.00 | 0.00 | 0.00 | 87 | 1019.4 |
| 20260507054632 | 69 | 92 | 3.0 | 7.0 | 0.00 | 0.00 | 0.00 | 87 | 1019.5 |
| 20260507053832 | 70 | 91 | 3.0 | 8.0 | 0.00 | 0.00 | 0.00 | 87 | 1019.4 |
| 20260507053332 | 70 | 88 | 4.0 | 9.0 | 0.00 | 0.00 | 0.00 | 87 | 1019.5 |
| 20260507052831 | 70 | 57 | 3.0 | 9.0 | 0.00 | 0.00 | 0.00 | 87 | 1019.5 |
| 20260507052331 | 70 | 83 | 5.0 | 8.0 | 0.00 | 0.00 | 0.00 | 86 | 1019.6 |
| 20260507052234 | 70 | 101 | 6.0 | 10.0 | 0.00 | 0.00 | 0.00 | 86 | 1019.6 |
| 20260507051331 | 71 | 129 | 6.0 | 11.0 | 0.00 | 0.00 | 0.00 | 85 | 1019.7 |
| 20260507050831 | 71 | 54 | 5.0 | 11.0 | 0.00 | 0.00 | 0.00 | 85 | 1019.8 |
| 20260507050332 | 71 | 91 | 4.0 | 9.0 | 0.00 | 0.00 | 0.00 | 85 | 1019.9 |
| 20260507050150 | 70 | 63 | 5.0 | 11.0 | 0.00 | 0.00 | 0.00 | 86 | 1019.8 |
| 20260507045332 | 70 | 97 | 9.0 | 11.0 | 0.00 | 0.00 | 0.00 | 87 | 1019.9 |
| 20260507045237 | 70 | 119 | 8.0 | 12.0 | 0.00 | 0.00 | 0.00 | 87 | 1019.9 |
| 20260507044330 | 70 | 110 | 5.0 | 12.0 | 0.00 | 0.00 | 0.00 | 88 | 1019.9 |
| 20260507043831 | 70 | 103 | 5.0 | 12.0 | 0.00 | 0.00 | 0.00 | 88 | 1020.0 |
| 20260507043331 | 70 | 83 | 5.0 | 10.0 | 0.00 | 0.00 | 0.00 | 88 | 1020.0 |
| 20260507042830 | 70 | 85 | 7.0 | 10.0 | 0.00 | 0.00 | 0.00 | 88 | 1020.0 |
| 20260507042331 | 70 | 90 | 7.0 | 10.0 | 0.00 | 0.00 | 0.00 | 88 | 1020.1 |
| 20260507042235 | 70 | 88 | 4.0 | 11.0 | 0.00 | 0.00 | 0.00 | 88 | 1020.0 |
| 20260507041415 | 70 | 67 | 5.0 | 10.0 | 0.00 | 0.00 | 0.00 | 88 | 1020.0 |
| 20260507041351 | 70 | 62 | 3.0 | 11.0 | 0.00 | 0.00 | 0.00 | 88 | 1020.1 |
| 20260507040951 | 70 | 40 | 6.0 | 11.0 | 0.00 | 0.00 | 0.00 | 88 | 1020.1 |
| 20260507040149 | 70 | 50 | 5.0 | 10.0 | 0.00 | 0.00 | 0.00 | 88 | 1020.0 |
| 20260507035331 | 70 | 94 | 6.0 | 11.0 | 0.00 | 0.00 | 0.00 | 88 | 1020.1 |
| 20260507034853 | 70 | 53 | 5.0 | 11.0 | 0.00 | 0.00 | 0.00 | 89 | 1020.1 |
| 20260507034332 | 70 | 96 | 5.0 | 11.0 | 0.00 | 0.00 | 0.00 | 89 | 1020.1 |
| 20260507034153 | 70 | 111 | 4.0 | 11.0 | 0.00 | 0.00 | 0.00 | 89 | 1020.0 |
| 20260507033329 | 70 | 57 | 5.0 | 11.0 | 0.00 | 0.00 | 0.00 | 89 | 1019.9 |
| 20260507033146 | 70 | 92 | 4.0 | 11.0 | 0.00 | 0.00 | 0.00 | 89 | 1019.8 |
| 20260507032324 | 70 | 85 | 4.0 | 8.0 | 0.00 | 0.00 | 0.00 | 89 | 1019.8 |
| 20260507031843 | 70 | 95 | 2.0 | 9.0 | 0.00 | 0.00 | 0.00 | 89 | 1019.7 |
| 20260507031320 | 70 | 94 | 4.0 | 9.0 | 0.00 | 0.00 | 0.00 | 89 | 1019.7 |
| 20260507030820 | 70 | 100 | 6.0 | 9.0 | 0.00 | 0.00 | 0.00 | 89 | 1019.6 |
| 20260507030316 | 70 | 107 | 6.0 | 14.0 | 0.00 | 0.00 | 0.00 | 89 | 1019.6 |
| 20260507025857 | 70 | 84 | 5.0 | 12.0 | 0.00 | 0.00 | 0.00 | 89 | 1019.5 |
| 20260507025852 | 70 | 83 | 7.0 | 13.0 | 0.00 | 0.00 | 0.00 | 89 | 1019.6 |
| 20260507025835 | 70 | 129 | 8.0 | 14.0 | 0.00 | 0.00 | 0.00 | 89 | 1019.6 |
| 20260507024400 | 70 | 66 | 2.0 | 11.0 | 0.00 | 0.00 | 0.00 | 89 | 1019.5 |
| 20260507024336 | 70 | 102 | 6.0 | 10.0 | 0.00 | 0.00 | 0.00 | 89 | 1019.6 |
| 20260507023934 | 70 | 59 | 5.0 | 11.0 | 0.00 | 0.00 | 0.00 | 89 | 1019.6 |
| 20260507022802 | 70 | 81 | 2.0 | 9.0 | 0.00 | 0.00 | 0.00 | 89 | 1019.4 |
| 20260507022302 | 70 | 76 | 2.0 | 8.0 | 0.00 | 0.00 | 0.00 | 89 | 1019.4 |
| 20260507022151 | 70 | 68 | 2.0 | 10.0 | 0.00 | 0.00 | 0.00 | 89 | 1019.4 |
| 20260507021303 | 70 | 86 | 6.0 | 12.0 | 0.00 | 0.00 | 0.00 | 89 | 1019.4 |
| 20260507020803 | 70 | 78 | 6.0 | 12.0 | 0.00 | 0.00 | 0.00 | 89 | 1019.2 |
| 20260507020620 | 70 | 86 | 5.0 | 10.0 | 0.00 | 0.00 | 0.00 | 90 | 1019.4 |
| 20260507015804 | 70 | 59 | 5.0 | 10.0 | 0.00 | 0.00 | 0.00 | 90 | 1019.4 |
| 20260507015623 | 70 | 72 | 6.0 | 9.0 | 0.00 | 0.00 | 0.00 | 90 | 1019.4 |
| 20260507014819 | 70 | 63 | 2.0 | 7.0 | 0.00 | 0.00 | 0.00 | 90 | 1019.2 |
| 20260507014303 | 71 | 55 | 4.0 | 7.0 | 0.00 | 0.00 | 0.00 | 90 | 1019.4 |
| 20260507013803 | 71 | 92 | 3.0 | 10.0 | 0.00 | 0.00 | 0.00 | 90 | 1019.4 |
| 20260507013303 | 71 | 117 | 6.0 | 15.0 | 0.00 | 0.00 | 0.00 | 90 | 1019.2 |
| 20260507012803 | 71 | 123 | 6.0 | 15.0 | 0.00 | 0.00 | 0.00 | 90 | 1019.2 |
| 20260507012306 | 71 | 46 | 5.0 | 14.0 | 0.00 | 0.00 | 0.00 | 89 | 1019.1 |
| 20260507012143 | 71 | 93 | 3.0 | 12.0 | 0.00 | 0.00 | 0.00 | 89 | 1019.0 |
| 20260507011626 | 70 | 63 | 5.0 | 12.0 | 0.00 | 0.00 | 0.00 | 90 | 1019.0 |
| 20260507010805 | 70 | 69 | 5.0 | 11.0 | 0.00 | 0.00 | 0.00 | 90 | 1019.0 |
| 20260507010306 | 70 | 49 | 4.0 | 11.0 | 0.00 | 0.00 | 0.00 | 90 | 1018.9 |
| 20260507005803 | 70 | 44 | 4.0 | 12.0 | 0.00 | 0.00 | 0.00 | 90 | 1018.9 |
| 20260507005305 | 70 | 49 | 5.0 | 12.0 | 0.00 | 0.00 | 0.00 | 90 | 1018.9 |
| 20260507005128 | 70 | 89 | 6.0 | 12.0 | 0.00 | 0.00 | 0.00 | 89 | 1018.9 |
| 20260507004452 | 70 | 67 | 4.0 | 12.0 | 0.00 | 0.00 | 0.00 | 90 | 1018.8 |
| 20260507004411 | 70 | 54 | 5.0 | 12.0 | 0.00 | 0.00 | 0.00 | 90 | 1018.9 |
| 20260507003619 | 70 | 71 | 4.0 | 11.0 | 0.00 | 0.00 | 0.00 | 90 | 1018.7 |
| 20260507002805 | 70 | 101 | 5.0 | 16.0 | 0.00 | 0.00 | 0.00 | 90 | 1018.7 |
| 20260507002306 | 71 | 44 | 11.0 | 16.0 | 0.00 | 0.00 | 0.00 | 89 | 1018.5 |
| 20260507001803 | 71 | 71 | 6.0 | 16.0 | 0.00 | 0.00 | 0.00 | 89 | 1018.5 |
| 20260507001305 | 71 | 62 | 8.0 | 14.0 | 0.00 | 0.00 | 0.00 | 89 | 1018.3 |
| 20260507000805 | 71 | 82 | 7.0 | 13.0 | 0.00 | 0.00 | 0.00 | 89 | 1018.3 |
| 20260507000302 | 71 | 71 | 8.0 | 13.0 | 0.00 | 0.00 | 0.00 | 89 | 1018.2 |
| 20260507000116 | 71 | 59 | 4.0 | 13.0 | 0.00 | 0.00 | 0.00 | 88 | 1018.1 |
| 20260506235255 | 71 | 77 | 9.0 | 13.0 | 0.00 | 0.00 | 0.00 | 88 | 1018.2 |
| 20260506234754 | 71 | 90 | 5.0 | 16.0 | 0.00 | 0.01 | 0.00 | 88 | 1018.1 |
| 20260506234250 | 71 | 77 | 8.0 | 16.0 | 0.00 | 0.01 | 0.00 | 88 | 1018.0 |
| 20260506234057 | 71 | 62 | 7.0 | 13.0 | 0.00 | 0.01 | 0.00 | 87 | 1018.0 |
| 20260506233241 | 71 | 71 | 6.0 | 12.0 | 0.00 | 0.01 | 0.00 | 87 | 1017.9 |
| 20260506232737 | 71 | 81 | 6.0 | 11.0 | 0.00 | 0.01 | 0.00 | 87 | 1017.9 |
| 20260506232233 | 71 | 104 | 4.0 | 13.0 | 0.00 | 0.01 | 0.00 | 87 | 1017.8 |
| 20260506231734 | 72 | 65 | 6.0 | 15.0 | 0.00 | 0.01 | 0.00 | 87 | 1017.8 |
| 20260506231232 | 71 | 116 | 9.0 | 15.0 | 0.00 | 0.02 | 0.00 | 86 | 1017.8 |
| 20260506231112 | 71 | 78 | 7.0 | 15.0 | 0.00 | 0.02 | 0.00 | 87 | 1017.9 |
| 20260506231107 | 71 | 75 | 5.0 | 12.0 | 0.00 | 0.02 | 0.00 | 87 | 1017.9 |
| 20260506230339 | 71 | 109 | 7.0 | 15.0 | 0.00 | 0.02 | 0.00 | 87 | 1017.9 |
| 20260506225226 | 71 | 51 | 8.0 | 15.0 | 0.00 | 0.03 | 0.00 | 87 | 1017.9 |
| 20260506224722 | 71 | 46 | 8.0 | 14.0 | 0.00 | 0.03 | 0.00 | 87 | 1017.9 |
| 20260506224217 | 71 | 76 | 8.0 | 17.0 | 0.00 | 0.04 | 0.00 | 87 | 1017.9 |
| 20260506223718 | 71 | 55 | 10.0 | 17.0 | 0.00 | 0.04 | 0.00 | 87 | 1017.8 |
| 20260506223214 | 71 | 73 | 6.0 | 19.0 | 0.00 | 0.05 | 0.00 | 87 | 1017.6 |
| 20260506222711 | 71 | 113 | 7.0 | 19.0 | 0.00 | 0.05 | 0.00 | 86 | 1017.6 |
| 20260506222205 | 72 | 49 | 9.0 | 15.0 | 0.00 | 0.06 | 0.00 | 86 | 1017.6 |
| 20260506222042 | 72 | 86 | 11.0 | 15.0 | 0.00 | 0.06 | 0.00 | 86 | 1017.5 |
| 20260506221205 | 72 | 98 | 8.0 | 19.0 | 0.00 | 0.06 | 0.00 | 86 | 1017.2 |
| 20260506220706 | 72 | 99 | 9.0 | 19.0 | 0.00 | 0.06 | 0.00 | 86 | 1017.1 |
| 20260506220208 | 72 | 69 | 7.0 | 17.0 | 0.00 | 0.06 | 0.00 | 86 | 1017.1 |
| 20260506215707 | 72 | 93 | 8.0 | 17.0 | 0.00 | 0.06 | 0.00 | 86 | 1017.2 |
| 20260506215208 | 72 | 98 | 7.0 | 17.0 | 0.00 | 0.06 | 0.00 | 87 | 1017.1 |
| 20260506214706 | 72 | 77 | 8.0 | 22.0 | 0.00 | 0.06 | 0.00 | 87 | 1017.0 |
| 20260506214206 | 72 | 72 | 12.0 | 22.0 | 0.00 | 0.06 | 0.00 | 87 | 1017.0 |
| 20260506214034 | 72 | 59 | 8.0 | 19.0 | 0.00 | 0.06 | 0.00 | 87 | 1017.0 |
| 20260506213205 | 72 | 96 | 9.0 | 19.0 | 0.00 | 0.06 | 0.00 | 86 | 1017.0 |
| 20260506212705 | 72 | 51 | 10.0 | 24.0 | 0.00 | 0.06 | 0.00 | 86 | 1017.1 |
| 20260506212206 | 72 | 44 | 14.0 | 26.0 | 0.00 | 0.06 | 0.00 | 86 | 1017.1 |
| 20260506212041 | 73 | 32 | 12.0 | 23.0 | 0.00 | 0.06 | 0.00 | 84 | 1016.9 |
| 20260506211917 | 72 | 61 | 11.0 | 26.0 | 0.00 | 0.06 | 0.00 | 86 | 1017.1 |
| 20260506211227 | 72 | 62 | 12.0 | 26.0 | 0.00 | 0.06 | 0.00 | 85 | 1017.0 |
| 20260506210818 | 73 | 71 | 16.0 | 26.0 | 0.00 | 0.06 | 0.00 | 84 | 1016.9 |
| 20260506205706 | 73 | 62 | 10.0 | 23.0 | 0.00 | 0.06 | 0.00 | 83 | 1016.7 |
| 20260506205332 | 73 | 65 | 14.0 | 24.0 | 0.00 | 0.06 | 0.00 | 83 | 1017.0 |
| 20260506205252 | 73 | 91 | 10.0 | 21.0 | 0.00 | 0.06 | 0.00 | 84 | 1016.8 |
| 20260506204848 | 73 | 71 | 13.0 | 23.0 | 0.00 | 0.06 | 0.00 | 84 | 1016.9 |
| 20260506203705 | 73 | 51 | 12.0 | 24.0 | 0.00 | 0.06 | 0.00 | 82 | 1016.9 |
| 20260506203540 | 74 | 51 | 9.0 | 24.0 | 0.00 | 0.06 | 0.00 | 82 | 1017.0 |
| 20260506203036 | 74 | 93 | 14.0 | 22.0 | 0.00 | 0.06 | 0.00 | 82 | 1017.0 |
| 20260506202205 | 75 | 78 | 12.0 | 22.0 | 0.00 | 0.06 | 0.00 | 82 | 1017.3 |
| 20260506201705 | 75 | 99 | 11.0 | 21.0 | 0.00 | 0.06 | 0.00 | 81 | 1017.2 |
| 20260506201615 | 76 | 89 | 13.0 | 21.0 | 0.00 | 0.06 | 0.00 | 79 | 1017.5 |
| 20260506200706 | 76 | 72 | 11.0 | 21.0 | 0.00 | 0.06 | 0.00 | 78 | 1017.3 |
| 20260506200533 | 77 | 69 | 11.0 | 21.0 | 0.00 | 0.06 | 0.00 | 75 | 1017.2 |
| 20260506195658 | 78 | 106 | 11.0 | 25.0 | 0.00 | 0.06 | 0.00 | 72 | 1017.2 |
| 20260506195153 | 79 | 69 | 15.0 | 25.0 | 0.00 | 0.06 | 0.00 | 69 | 1017.5 |
| 20260506194654 | 81 | 38 | 10.0 | 24.0 | 0.00 | 0.06 | 0.00 | 67 | 1017.5 |
| 20260506194154 | 81 | 48 | 10.0 | 20.0 | 0.00 | 0.06 | 0.00 | 67 | 1017.2 |
| 20260506193649 | 80 | 61 | 13.0 | 20.0 | 0.00 | 0.06 | 0.00 | 66 | 1017.1 |
| 20260506193150 | 82 | 96 | 9.0 | 20.0 | 0.00 | 0.06 | 0.00 | 66 | 1017.1 |
| 20260506192646 | 81 | 95 | 11.0 | 20.0 | 0.00 | 0.06 | 0.00 | 65 | 1017.3 |
| 20260506192147 | 81 | 90 | 10.0 | 16.0 | 0.00 | 0.06 | 0.00 | 66 | 1017.6 |
| 20260506191642 | 80 | 51 | 8.0 | 19.0 | 0.00 | 0.06 | 0.00 | 66 | 1017.7 |
| 20260506191138 | 80 | 104 | 8.0 | 19.0 | 0.00 | 0.06 | 0.00 | 66 | 1017.8 |
| 20260506190841 | 80 | 62 | 9.0 | 19.0 | 0.00 | 0.06 | 0.00 | 66 | 1018.0 |
| 20260506190751 | 80 | 87 | 10.0 | 19.0 | 0.00 | 0.06 | 0.00 | 65 | 1017.9 |
| 20260506185637 | 80 | 32 | 13.0 | 19.0 | 0.00 | 0.06 | 0.00 | 68 | 1018.0 |
| 20260506185134 | 80 | 130 | 7.0 | 20.0 | 0.00 | 0.06 | 0.00 | 68 | 1018.0 |
| 20260506184633 | 79 | 78 | 13.0 | 21.0 | 0.00 | 0.06 | 0.00 | 69 | 1018.3 |
| 20260506184133 | 80 | 74 | 12.0 | 21.0 | 0.00 | 0.06 | 0.00 | 67 | 1018.5 |
| 20260506183957 | 80 | 74 | 10.0 | 24.0 | 0.00 | 0.06 | 0.00 | 67 | 1018.5 |
| 20260506183458 | 81 | 66 | 11.0 | 24.0 | 0.00 | 0.06 | 0.00 | 66 | 1018.5 |
| 20260506182634 | 80 | 79 | 9.0 | 21.0 | 0.00 | 0.06 | 0.00 | 68 | 1018.5 |
| 20260506182133 | 80 | 90 | 6.0 | 21.0 | 0.00 | 0.06 | 0.00 | 69 | 1018.7 |
| 20260506181633 | 80 | 140 | 7.0 | 17.0 | 0.00 | 0.06 | 0.00 | 69 | 1018.7 |
| 20260506181542 | 80 | 62 | 10.0 | 18.0 | 0.00 | 0.06 | 0.00 | 69 | 1018.7 |
| 20260506180632 | 79 | 123 | 11.0 | 18.0 | 0.00 | 0.06 | 0.00 | 69 | 1018.7 |
| 20260506180145 | 79 | 44 | 9.0 | 19.0 | 0.00 | 0.06 | 0.00 | 70 | 1018.8 |
| 20260506175632 | 79 | 55 | 11.0 | 19.0 | 0.00 | 0.06 | 0.00 | 70 | 1018.8 |
| 20260506175508 | 79 | 42 | 11.0 | 21.0 | 0.00 | 0.06 | 0.00 | 69 | 1018.9 |
| 20260506174635 | 79 | 115 | 15.0 | 21.0 | 0.00 | 0.06 | 0.00 | 68 | 1019.1 |
| 20260506174132 | 79 | 82 | 9.0 | 17.0 | 0.00 | 0.06 | 0.00 | 70 | 1019.1 |
| 20260506173632 | 79 | 53 | 10.0 | 21.0 | 0.00 | 0.06 | 0.00 | 70 | 1019.1 |
| 20260506173133 | 78 | 95 | 9.0 | 21.0 | 0.00 | 0.06 | 0.00 | 72 | 1019.2 |
| 20260506172633 | 78 | 61 | 9.0 | 19.0 | 0.00 | 0.06 | 0.00 | 72 | 1019.5 |
| 20260506172133 | 77 | 65 | 11.0 | 20.0 | 0.00 | 0.06 | 0.00 | 73 | 1019.4 |
| 20260506171950 | 76 | 90 | 8.0 | 17.0 | 0.00 | 0.06 | 0.00 | 75 | 1019.6 |
| 20260506171942 | 77 | 56 | 12.0 | 18.0 | 0.00 | 0.06 | 0.00 | 73 | 1019.6 |
| 20260506171829 | 78 | 56 | 10.0 | 20.0 | 0.00 | 0.06 | 0.00 | 72 | 1019.6 |
| 20260506171205 | 77 | 50 | 6.0 | 18.0 | 0.00 | 0.06 | 0.00 | 73 | 1019.6 |
| 20260506165631 | 76 | 88 | 11.0 | 20.0 | 0.00 | 0.06 | 0.00 | 75 | 1019.6 |
| 20260506165338 | 77 | 73 | 9.0 | 19.0 | 0.00 | 0.06 | 0.00 | 74 | 1019.6 |
| 20260506165245 | 77 | 88 | 10.0 | 20.0 | 0.00 | 0.06 | 0.00 | 75 | 1019.6 |
| 20260506164149 | 77 | 65 | 11.0 | 17.0 | 0.00 | 0.06 | 0.00 | 75 | 1019.6 |
| 20260506163632 | 76 | 113 | 11.0 | 19.0 | 0.00 | 0.06 | 0.00 | 76 | 1019.6 |
| 20260506163139 | 76 | 75 | 10.0 | 19.0 | 0.00 | 0.06 | 0.00 | 78 | 1019.5 |
| 20260506162636 | 75 | 53 | 10.0 | 19.0 | 0.00 | 0.06 | 0.00 | 78 | 1019.6 |
| 20260506162140 | 75 | 61 | 13.0 | 21.0 | 0.00 | 0.06 | 0.00 | 78 | 1019.6 |
| 20260506161637 | 74 | 96 | 12.0 | 22.0 | 0.00 | 0.06 | 0.00 | 80 | 1019.6 |
| 20260506161306 | 74 | 82 | 8.0 | 19.0 | 0.00 | 0.06 | 0.00 | 80 | 1019.7 |
| 20260506161222 | 74 | 53 | 12.0 | 22.0 | 0.00 | 0.06 | 0.00 | 79 | 1019.5 |
| 20260506160744 | 75 | 42 | 9.0 | 20.0 | 0.00 | 0.06 | 0.00 | 79 | 1019.6 |
| 20260506155629 | 75 | 52 | 11.0 | 19.0 | 0.00 | 0.06 | 0.00 | 79 | 1019.7 |
| 20260506155120 | 74 | 69 | 10.0 | 19.0 | 0.00 | 0.06 | 0.00 | 82 | 1019.7 |
| 20260506154613 | 73 | 48 | 12.0 | 19.0 | 0.00 | 0.06 | 0.00 | 82 | 1019.8 |
| 20260506154437 | 73 | 55 | 10.0 | 19.0 | 0.00 | 0.06 | 0.00 | 82 | 1020.0 |
| 20260506153610 | 73 | 31 | 11.0 | 18.0 | 0.00 | 0.06 | 0.00 | 81 | 1020.1 |
| 20260506153105 | 73 | 11 | 7.0 | 18.0 | 0.00 | 0.06 | 0.00 | 82 | 1020.0 |
| 20260506152929 | 73 | 69 | 11.0 | 16.0 | 0.00 | 0.06 | 0.00 | 82 | 1020.0 |
| 20260506152426 | 73 | 57 | 6.0 | 15.0 | 0.00 | 0.06 | 0.00 | 83 | 1020.3 |